Hanford, CA

5:06 PM PDT on August 26, 2016 (GMT -0700)
Hanford Municipal

Weather History for KHJO - December, 2012

Change the Weather History Date:

Sunday, December 23, 2012

  Actual Average Record
Temperature  
Mean Temperature 48 °F 44 °F  
Max Temperature 52 °F 53 °F 65 °F (2013)
Min Temperature 43 °F 35 °F 19 °F (1998)
Degree Days  
Heating Degree Days 17    
Month to date heating degree days 370  
Since 1 July heating degree days 769  
Cooling Degree Days 0    
Month to date cooling degree days 0  
Year to date cooling degree days 2018  
Moisture  
Dew Point 47 °F    
Average Humidity 95    
Maximum Humidity 100    
Minimum Humidity 89    
Precipitation  
Precipitation 0.36 in 0.07 in 0.45 in (2012)
Month to date precipitation 1.17 0.96  
Year to date precipitation 6.23 9.43  
Since 1 July precipitation 1.65  
Snow  
Snow 0.00 in - - ()
Month to date snowfall 0.0  
Since 1 July snowfall 0.0  
Snow Depth 0.00 in    
Sea Level Pressure  
Sea Level Pressure 30.14 in    
Wind  
Wind Speed 5 mph (SE)    
Max Wind Speed 12 mph    
Max Gust Speed 21 mph    
Visibility 4 miles    
Events Fog , Rain    
T = Trace of Precipitation, MM = Missing Value Source: NWS Daily Summary

Daily Weather History Graph

Daily Weather History Graph

Search for Another Location

Airport or City:

Trip Planner

Search our weather history database for the weather conditions in past years. The results will help you decide how hot, cold, wet, or windy it might be!

Date:

Astronomy

Dec. 23, 2012 Rise Set
Actual Time 7:07 AM PST 4:48 PM PST
Civil Twilight 6:38 AM PST 5:17 PM PST
Nautical Twilight 6:06 AM PST 5:49 PM PST
Astronomical Twilight 5:34 AM PST 6:20 PM PST
Moon 1:39 PM PST (12/23) 2:58 AM PST (12/23)
Length of Visible Light 10h 38m
Length of Day
9h 41m
Waxing Gibbous, 82% of the Moon is Illuminated
Dec 23
Waxing Gibbous
Dec 28
Full
Jan 4
Last Quarter
Jan 11
New
Jan 18
First Quarter

Hourly Weather History & Observations

Time (PST) Temp. Windchill Dew Point Humidity Pressure Visibility Wind Dir Wind Speed Gust Speed Precip Events Conditions
12:06 AM 48.2 °F - 48.2 °F 100% 30.17 in 2.5 mi Calm Calm - N/A   Overcast
12:18 AM 48.2 °F - 48.2 °F 100% 30.17 in 3.0 mi Calm Calm - N/A   Overcast
12:25 AM 48.2 °F - 48.2 °F 100% 30.17 in 3.0 mi Calm Calm - N/A   Overcast
12:39 AM 48.2 °F - 46.4 °F 93% 30.18 in 2.5 mi SW 3.5 mph - N/A   Overcast
12:53 AM 48.9 °F - 48.0 °F 97% 30.19 in 2.5 mi SSW 3.5 mph - N/A   Overcast
1:42 AM 46.4 °F - 44.6 °F 93% 30.18 in 1.8 mi Calm Calm - N/A   Partly Cloudy
1:53 AM 45.0 °F 43.5 °F 45.0 °F 100% 30.19 in 0.8 mi ESE 3.5 mph - N/A   Clear
2:04 AM 44.6 °F 43.1 °F 44.6 °F 100% 30.19 in 0.2 mi ESE 3.5 mph - N/A Fog Fog
2:19 AM 44.6 °F 41.4 °F 42.8 °F 93% 30.18 in 0.2 mi East 5.8 mph - N/A Fog Fog
2:53 AM 45.0 °F 43.5 °F 44.1 °F 97% 30.19 in 0.2 mi SSE 3.5 mph - N/A Fog Fog
3:53 AM 44.1 °F 41.5 °F 42.1 °F 93% 30.18 in 0.2 mi South 4.6 mph - N/A Fog Fog
4:53 AM 44.1 °F 41.5 °F 43.0 °F 96% 30.16 in 0.2 mi SE 4.6 mph - N/A Fog Fog
5:53 AM 46.9 °F - 46.0 °F 97% 30.16 in 0.2 mi ESE 4.6 mph - N/A Fog Fog
6:53 AM 48.0 °F - 46.9 °F 96% 30.17 in 0.2 mi ESE 3.5 mph - N/A Fog Fog
7:53 AM 46.9 °F - 46.9 °F 100% 30.19 in 0.2 mi SSW 4.6 mph - N/A Fog Fog
8:06 AM 46.4 °F 44.3 °F 46.4 °F 100% 30.17 in 0.2 mi SSE 4.6 mph - N/A Fog Fog
8:38 AM 48.2 °F - 46.4 °F 93% 30.17 in 0.5 mi SSE 5.8 mph - N/A Fog Fog
8:53 AM 48.0 °F - 46.9 °F 96% 30.18 in 0.5 mi SSE 4.6 mph - N/A Fog Fog
9:43 AM 48.2 °F - 46.4 °F 93% 30.19 in 1.8 mi South 8.1 mph - N/A   Overcast
9:51 AM 48.2 °F - 48.2 °F 100% 30.19 in 2.5 mi SSE 8.1 mph - 0.01 in Rain Light Rain
9:53 AM 48.9 °F - 48.0 °F 97% 30.20 in 2.5 mi SSE 9.2 mph - 0.01 in Rain Light Rain
10:11 AM 48.2 °F - 48.2 °F 100% 30.19 in 2.5 mi SSE 8.1 mph - 0.01 in Rain Light Rain
10:26 AM 48.2 °F - 48.2 °F 100% 30.19 in 4.0 mi SSE 8.1 mph - 0.02 in Rain Light Rain
10:53 AM 50.0 °F - 48.9 °F 96% 30.19 in 3.0 mi SSE 5.8 mph - 0.03 in Rain Light Rain
11:11 AM 50.0 °F - 48.2 °F 94% 30.18 in 3.0 mi SSE 5.8 mph - 0.01 in Rain Light Rain
11:22 AM 50.0 °F - 48.2 °F 94% 30.18 in 3.0 mi SSE 6.9 mph - 0.01 in Rain Light Rain
11:53 AM 50.0 °F - 48.9 °F 96% 30.18 in 2.5 mi SE 5.8 mph - 0.05 in Rain Rain
11:59 AM 50.0 °F - 48.2 °F 94% 30.17 in 3.0 mi SE 5.8 mph - 0.01 in Rain Light Rain
12:12 PM 50.0 °F - 48.2 °F 94% 30.16 in 2.5 mi ESE 5.8 mph - 0.03 in Rain Light Rain
12:50 PM 50.0 °F - 48.2 °F 94% 30.13 in 3.0 mi ESE 6.9 mph - 0.09 in Rain Light Rain
12:53 PM 50.0 °F - 48.9 °F 96% 30.14 in 2.5 mi ESE 8.1 mph - 0.09 in Rain Light Rain
1:06 PM 51.8 °F - 48.2 °F 88% 30.12 in 3.0 mi ESE 11.5 mph - 0.01 in Rain Light Rain
1:53 PM 51.1 °F - 50.0 °F 96% 30.12 in 4.0 mi East 8.1 mph - 0.05 in Rain Light Rain
2:53 PM 51.1 °F - 48.9 °F 92% 30.10 in 5.0 mi East 9.2 mph - 0.09 in Rain Light Rain
3:53 PM 51.1 °F - 48.0 °F 89% 30.09 in 10.0 mi ESE 6.9 mph - 0.01 in   Overcast
4:53 PM 52.0 °F - 48.0 °F 86% 30.06 in 10.0 mi East 9.2 mph 17.3 mph N/A   Overcast
5:53 PM 52.0 °F - 46.9 °F 83% 30.05 in 10.0 mi SE 6.9 mph - N/A   Overcast
6:53 PM 51.1 °F - 46.9 °F 86% 30.05 in 6.0 mi SE 8.1 mph - 0.06 in Rain Light Rain
7:53 PM 52.0 °F - 46.9 °F 83% 30.04 in 10.0 mi SE 9.2 mph - 0.01 in   Overcast
8:53 PM 53.1 °F - 46.9 °F 80% 30.03 in 10.0 mi ESE 9.2 mph - N/A   Overcast
9:53 PM 52.0 °F - 48.9 °F 89% 30.01 in 6.0 mi ESE 12.7 mph 18.4 mph 0.04 in Rain Light Rain
10:53 PM 52.0 °F - 48.9 °F 89% 29.99 in 10.0 mi ESE 12.7 mph - 0.01 in   Overcast
11:35 PM 53.6 °F - 48.2 °F 82% 29.98 in 10.0 mi SE 12.7 mph - N/A   Overcast
11:53 PM 52.0 °F - 48.9 °F 89% 29.98 in 10.0 mi SE 12.7 mph - N/A   Overcast